When you browse on this site, cookies collect data to enhance your experience and personalize the content and advertising you see.
Visit our Privacy Policy to learn more. By continuing to use the site, you agree to this use of cookies and data.
  • In Latvia
  • List of Countries
  • For 7 days
  • Water Temperature
  • Weather Map
  • Weather Widgets
  • user-avatar
    Login

    Hourly Weather Ordino

    Today, 20 November, Wednesday

    Time Temperature Precipitation Wind Pressure Humidity
    00:00 -3°C° 0 mm 1 mps 627 mmHg 69%
    01:00 -3°C° 0 mm 1 mps 626 mmHg 67%
    02:00 -3°C° 0 mm 1 mps 626 mmHg 64%
    03:00 -5°C° 0 mm 2 mps 626 mmHg 62%
    04:00 -4°C° 0 mm 2 mps 625 mmHg 59%
    05:00 -2°C° 0 mm 1 mps 625 mmHg 56%
    06:00 -2°C° 0 mm 1 mps 625 mmHg 53%
    07:00 -1°C° 0 mm 1 mps 626 mmHg 50%
    08:00 0°C° 0 mm 1 mps 626 mmHg 48%
    09:00 +2°C° 0 mm 1 mps 627 mmHg 45%
    10:00 +2°C° 0 mm 2 mps 627 mmHg 46%
    11:00 +2°C° 0 mm 2 mps 627 mmHg 46%
    12:00 +3°C° 0 mm 2 mps 627 mmHg 46%
    13:00 +3°C° 0 mm 2 mps 626 mmHg 52%
    14:00 +2°C° 0 mm 2 mps 626 mmHg 58%
    15:00 +1°C° 0 mm 2 mps 625 mmHg 63%
    16:00 -1°C° 0 mm 2 mps 624 mmHg 69%
    17:00 -3°C° 0 mm 2 mps 624 mmHg 74%
    18:00 -4°C° 0 mm 2 mps 623 mmHg 80%
    19:00 -4°C° 0 mm 2 mps 623 mmHg 80%
    20:00 -4°C° 0 mm 2 mps 623 mmHg 80%
    21:00 -4°C° 0 mm 2 mps 623 mmHg 80%
    22:00 -4°C° 0 mm 2 mps 623 mmHg 81%
    23:00 -5°C° 0 mm 2 mps 623 mmHg 82%

    Tomorrow, 21 November, Thursday

    Time Temperature Precipitation Wind Pressure Humidity
    00:00 -5°C° 0 mm 2 mps 622 mmHg 82%
    01:00 -4°C° 0 mm 2 mps 622 mmHg 81%
    02:00 -2°C° 0 mm 1 mps 622 mmHg 79%
    03:00 -1°C° 0 mm 1 mps 622 mmHg 78%
    04:00 -1°C° 0 mm 1 mps 622 mmHg 80%
    05:00 -1°C° 0 mm 1 mps 622 mmHg 81%
    06:00 -1°C° 0 mm 1 mps 623 mmHg 83%
    07:00 0°C° 0 mm 1 mps 623 mmHg 81%
    08:00 +1°C° 0 mm 1 mps 624 mmHg 78%
    09:00 +2°C° 0 mm 1 mps 624 mmHg 76%
    10:00 +3°C° 0 mm 1 mps 624 mmHg 76%
    11:00 +3°C° 0 mm 1 mps 624 mmHg 75%
    12:00 +4°C° 0 mm 1 mps 624 mmHg 74%
    13:00 +4°C° 0 mm 1 mps 624 mmHg 75%
    14:00 +3°C° 0 mm 1 mps 624 mmHg 76%
    15:00 +3°C° 0 mm 1 mps 624 mmHg 77%
    16:00 +2°C° 0 mm 1 mps 624 mmHg 82%
    17:00 0°C° 0 mm 1 mps 623 mmHg 88%
    18:00 -2°C° 0 mm 1 mps 623 mmHg 93%
    19:00 -1°C° 0 mm 1 mps 623 mmHg 92%
    20:00 -1°C° 0 mm 1 mps 623 mmHg 91%
    21:00 -1°C° 0 mm 1 mps 624 mmHg 90%
    22:00 -1°C° 0 mm 1 mps 623 mmHg 90%
    23:00 -1°C° 0 mm 1 mps 623 mmHg 90%

    Day after tomorrow, 22 November, Friday

    Time Temperature Precipitation Wind Pressure Humidity
    00:00 -3°C° 0 mm 2 mps 623 mmHg 90%
    01:00 -4°C° 0 mm 2 mps 623 mmHg 89%
    02:00 -4°C° 0 mm 2 mps 622 mmHg 88%
    03:00 -4°C° 0 mm 2 mps 622 mmHg 87%
    04:00 -4°C° 0 mm 2 mps 622 mmHg 85%
    05:00 -3°C° 0 mm 2 mps 622 mmHg 84%
    06:00 -3°C° 0 mm 2 mps 621 mmHg 83%
    07:00 -2°C° 0 mm 3 mps 621 mmHg 83%
    08:00 -1°C° 0 mm 3 mps 621 mmHg 83%
    09:00 0°C° 0 mm 3 mps 622 mmHg 83%
    10:00 -1°C° 0.2 mm 4 mps 621 mmHg 85%
    11:00 0°C° 0.2 mm 4 mps 620 mmHg 87%
    12:00 0°C° 0.2 mm 4 mps 620 mmHg 90%
    13:00 0°C° 0.8 mm 4 mps 619 mmHg 91%
    14:00 0°C° 0.8 mm 4 mps 618 mmHg 93%
    15:00 0°C° 0.8 mm 5 mps 617 mmHg 95%
    16:00 0°C° 2.7 mm 4 mps 617 mmHg 95%
    17:00 0°C° 2.7 mm 4 mps 616 mmHg 95%
    18:00 0°C° 2.7 mm 4 mps 615 mmHg 96%
    19:00 0°C° 4.7 mm 4 mps 615 mmHg 96%
    20:00 0°C° 4.7 mm 4 mps 615 mmHg 96%
    21:00 +1°C° 4.7 mm 3 mps 615 mmHg 97%
    22:00 +1°C° 1.6 mm 3 mps 615 mmHg 97%
    23:00 +2°C° 1.6 mm 2 mps 615 mmHg 97%

    23 November, Saturday

    Time Temperature Precipitation Wind Pressure Humidity
    00:00 +2°C° 1.6 mm 2 mps 614 mmHg 97%
    01:00 +3°C° 0.1 mm 1 mps 614 mmHg 97%
    02:00 +2°C° 0.1 mm 1 mps 614 mmHg 97%
    03:00 +1°C° 0.1 mm 1 mps 613 mmHg 96%
    04:00 +1°C° 0.1 mm 1 mps 613 mmHg 96%
    05:00 +1°C° 0.1 mm 1 mps 614 mmHg 96%
    06:00 +1°C° 0.1 mm 1 mps 614 mmHg 96%
    07:00 +1°C° 0.3 mm 1 mps 615 mmHg 96%
    08:00 +1°C° 0.3 mm 1 mps 616 mmHg 96%
    09:00 +2°C° 0.3 mm 1 mps 616 mmHg 95%
    10:00 +3°C° 0.2 mm 1 mps 617 mmHg 94%
    11:00 +3°C° 0.2 mm 1 mps 618 mmHg 93%
    12:00 +3°C° 0.2 mm 2 mps 618 mmHg 92%
    13:00 +3°C° 0.5 mm 1 mps 618 mmHg 93%
    14:00 +3°C° 0.5 mm 1 mps 618 mmHg 94%
    15:00 +3°C° 0.5 mm 1 mps 618 mmHg 95%
    16:00 +2°C° 1 mm 1 mps 619 mmHg 95%
    17:00 +1°C° 1 mm 1 mps 619 mmHg 96%
    18:00 +1°C° 1 mm 1 mps 620 mmHg 97%
    19:00 +1°C° 1.2 mm 1 mps 620 mmHg 97%
    20:00 +1°C° 1.2 mm 1 mps 621 mmHg 97%
    21:00 +1°C° 1.2 mm 1 mps 621 mmHg 96%
    22:00 -1°C° 1.4 mm 2 mps 622 mmHg 96%
    23:00 -1°C° 1.4 mm 2 mps 622 mmHg 96%

    24 November, Sunday

    Time Temperature Precipitation Wind Pressure Humidity
    00:00 -1°C° 1.4 mm 2 mps 623 mmHg 96%
    01:00 -1°C° 0.8 mm 3 mps 623 mmHg 96%
    02:00 -1°C° 0.8 mm 3 mps 623 mmHg 96%
    03:00 -1°C° 0.8 mm 3 mps 624 mmHg 96%
    04:00 -1°C° 0.3 mm 3 mps 624 mmHg 96%
    05:00 -1°C° 0.3 mm 3 mps 625 mmHg 96%
    06:00 -1°C° 0.3 mm 3 mps 625 mmHg 95%
    07:00 0°C° 0.3 mm 3 mps 626 mmHg 95%
    08:00 0°C° 0.3 mm 3 mps 626 mmHg 94%
    09:00 +1°C° 0.3 mm 3 mps 627 mmHg 93%
    10:00 +1°C° 0.2 mm 3 mps 628 mmHg 93%
    11:00 +1°C° 0.2 mm 3 mps 628 mmHg 93%
    12:00 +2°C° 0.2 mm 3 mps 628 mmHg 92%
    13:00 +3°C° 0 mm 2 mps 628 mmHg 92%
    14:00 +3°C° 0 mm 2 mps 629 mmHg 92%
    15:00 +2°C° 0 mm 2 mps 629 mmHg 91%
    16:00 +1°C° 0 mm 2 mps 629 mmHg 92%
    17:00 -1°C° 0 mm 2 mps 629 mmHg 93%
    18:00 -2°C° 0 mm 2 mps 629 mmHg 94%
    19:00 -2°C° 0 mm 2 mps 629 mmHg 92%
    20:00 -2°C° 0 mm 2 mps 629 mmHg 91%
    21:00 -2°C° 0 mm 2 mps 629 mmHg 89%
    22:00 0°C° 0 mm 1 mps 629 mmHg 86%
    23:00 0°C° 0 mm 1 mps 630 mmHg 82%

    25 November, Monday

    Time Temperature Precipitation Wind Pressure Humidity
    00:00 0°C° 0 mm 1 mps 630 mmHg 79%
    01:00 0°C° 0 mm 1 mps 630 mmHg 77%
    02:00 0°C° 0 mm 1 mps 629 mmHg 76%
    03:00 0°C° 0 mm 1 mps 629 mmHg 74%
    04:00 -2°C° 0 mm 2 mps 629 mmHg 73%
    05:00 -2°C° 0 mm 2 mps 629 mmHg 71%
    06:00 -2°C° 0 mm 2 mps 629 mmHg 69%
    07:00 -1°C° 0 mm 2 mps 630 mmHg 69%
    08:00 +2°C° 0 mm 2 mps 631 mmHg 68%
    09:00 +3°C° 0 mm 2 mps 632 mmHg 68%
    10:00 +4°C° 0 mm 2 mps 632 mmHg 72%
    11:00 +6°C° 0 mm 1 mps 632 mmHg 76%
    12:00 +7°C° 0 mm 1 mps 633 mmHg 80%
    13:00 +7°C° 0 mm 1 mps 633 mmHg 83%
    14:00 +7°C° 0 mm 1 mps 632 mmHg 86%
    15:00 +6°C° 0 mm 1 mps 632 mmHg 89%
    16:00 +5°C° 0 mm 2 mps 632 mmHg 90%
    17:00 +4°C° 0 mm 2 mps 632 mmHg 90%
    18:00 +3°C° 0 mm 2 mps 632 mmHg 91%
    19:00 +3°C° 0 mm 2 mps 632 mmHg 90%
    20:00 +3°C° 0 mm 2 mps 632 mmHg 90%
    21:00 +2°C° 0 mm 2 mps 632 mmHg 90%
    22:00 +2°C° 0 mm 2 mps 632 mmHg 88%
    23:00 +2°C° 0 mm 2 mps 632 mmHg 87%
    Show more